Stations météo

Publicité
Orleans, France (7249): Température de l'air & dewpoint: 15.06.2018 18:00:00 - 21.06.2018 18:00:00 (CEST)Orleans, France (7249): Température de l'air 5cm: 15.06.2018 18:00:00 - 21.06.2018 18:00:00 (CEST)Orleans, France (7249): Température de l'air -20cm & Température de l'air -100cm: 15.06.2018 18:00:00 - 21.06.2018 18:00:00 (CEST)Orleans, France (7249): Vitesse du vent & gusts: 15.06.2018 18:00:00 - 21.06.2018 18:00:00 (CEST)Orleans, France (7249): Direction du vent: 15.06.2018 18:00:00 - 21.06.2018 18:00:00 (CEST)Orleans, France (7249): reduced air pressure: 15.06.2018 18:00:00 - 21.06.2018 18:00:00 (CEST)Orleans, France (7249): visibility: 15.06.2018 18:00:00 - 21.06.2018 18:00:00 (CEST)Orleans, France (7249): Ensoleillement: 15.06.2018 18:00:00 - 21.06.2018 18:00:00 (CEST)Orleans, France (7249): Quantités de précipitations: 15.06.2018 18:00:00 - 21.06.2018 18:00:00 (CEST)
Date & Time tt [°C] td [°C] tt 5cm [°C] tt -20cm [°C] tt -100cm [°C] ff [km/h] ff [knt] fx [km/h] fx [knt] dd ppp [hPa] vv [km] sd [min] rr [mm]
21.06.2018 18:00:00 - - - - - - - - - - - - - -
21.06.2018 17:00:00 22,0 10,2 31,4 19,8 16,3 24 13 37 20 N 1022,3 14 60 0,0
21.06.2018 16:00:00 21,7 10,5 30,1 19,7 16,4 22 12 43 23 N 1022,1 16 58 0,0
21.06.2018 15:00:00 21,6 11,3 28,5 19,7 16,4 21 12 37 20 N 1021,9 18 43 0,0
21.06.2018 14:00:00 21,2 12,9 26,1 19,7 16,4 19 10 28 15 N 1021,8 22 28 0,0
21.06.2018 13:00:00 20,6 13,1 22,0 19,7 16,4 18 10 31 17 NNE 1021,8 24 18 0,0
21.06.2018 12:00:00 19,4 14,0 19,2 19,8 16,4 17 9 29 16 NNE 1022,0 26 8 0,0
21.06.2018 11:00:00 17,7 14,0 18,7 19,8 16,4 21 11 32 18 N 1021,9 29 0 0,0
21.06.2018 10:00:00 17,7 14,4 18,5 19,9 16,4 20 11 40 22 N 1021,6 27 0 0,0
21.06.2018 09:00:00 17,0 14,6 15,5 19,9 16,3 19 10 40 21 N 1021,1 16 3 0,0
21.06.2018 08:00:00 15,3 14,3 15,0 20,0 16,3 23 12 31 17 N 1020,8 8 0 0,0
21.06.2018 07:00:00 15,6 14,6 13,5 20,1 16,3 16 9 32 17 N 1019,9 7 18 0,0
21.06.2018 06:00:00 15,0 13,5 11,1 20,2 16,4 11 6 18 10 N 1019,5 11 0 0,2
21.06.2018 05:00:00 15,9 14,1 12,9 20,3 16,3 8 5 18 10 N 1019,2 10 0 0,0
21.06.2018 04:00:00 16,3 15,2 13,3 20,4 16,4 14 7 23 12 N 1019,6 12 0 0,0
21.06.2018 03:00:00 15,6 13,8 11,5 20,5 16,4 12 6 16 9 NNW 1019,5 17 0 0,0
21.06.2018 02:00:00 16,5 14,0 12,0 20,5 16,3 5 3 18 10 N 1019,4 18 0 0,0
21.06.2018 01:00:00 17,6 15,0 12,2 20,6 16,3 3 2 5 3 NE 1019,2 18 0 0,0
21.06.2018 00:00:00 18,5 15,0 12,5 20,6 16,4 0 0 7 4 N 1019,3 25 0 0,0
20.06.2018 23:00:00 19,0 14,7 13,6 20,6 16,3 6 3 13 7 N 1019,5 13 0 0,0
20.06.2018 22:00:00 22,7 15,0 16,1 20,5 16,3 6 3 10 5 NNE 1018,9 33 27 0,0
20.06.2018 21:00:00 25,8 16,1 21,6 20,4 16,3 8 4 14 8 NNE 1018,5 45 60 0,0
20.06.2018 20:00:00 27,0 15,1 25,2 20,2 16,3 10 5 16 9 NNE 1018,8 28 60 0,0
20.06.2018 19:00:00 27,9 13,0 30,3 20,0 16,3 9 5 21 11 NE 1018,6 29 60 0,0
20.06.2018 18:00:00 28,2 14,1 37,5 19,9 16,3 8 5 24 13 NNE 1019,0 31 60 0,0
20.06.2018 17:00:00 28,1 12,4 40,1 19,7 16,3 10 5 23 12 NE 1019,4 31 60 0,0
20.06.2018 16:00:00 28,3 13,8 42,5 19,5 16,3 13 7 21 12 N 1019,7 32 60 0,0
20.06.2018 15:00:00 27,7 12,9 41,4 19,3 16,3 11 6 21 12 NNE 1020,2 20 60 0,0
20.06.2018 14:00:00 27,0 15,7 43,3 19,2 16,3 11 6 19 11 NNE 1020,4 35 60 0,0
20.06.2018 13:00:00 26,3 15,7 39,2 19,1 16,3 10 6 18 10 NE 1020,9 47 60 0,0
20.06.2018 12:00:00 25,0 15,9 32,1 19,1 16,3 9 5 17 9 E 1021,4 24 60 0,0
20.06.2018 11:00:00 23,8 16,1 26,7 19,1 16,3 10 6 21 11 ESE 1021,5 20 60 0,0
20.06.2018 10:00:00 22,2 16,7 19,1 19,2 16,3 14 8 22 12 ESE 1021,7 14 60 0,0
20.06.2018 09:00:00 20,1 16,9 16,0 19,2 16,3 11 6 19 11 ESE 1021,8 11 60 0,0
20.06.2018 08:00:00 15,5 15,0 12,7 19,3 16,3 9 5 14 8 ENE 1022,3 0,5 60 0,0
20.06.2018 07:00:00 13,0 12,5 11,8 19,4 16,3 8 5 12 7 NE 1022,3 0,4 32 0,0
20.06.2018 06:00:00 13,2 12,6 11,7 19,4 16,3 10 5 12 7 NE 1022,3 3,2 0 0,0
20.06.2018 05:00:00 13,2 12,6 11,7 19,5 16,3 6 3 11 6 NE 1022,6 3,8 0 0,2
20.06.2018 04:00:00 13,8 13,0 12,2 19,6 16,3 9 5 13 7 ENE 1022,9 7 0 0,0
20.06.2018 03:00:00 13,9 12,9 12,4 19,6 16,3 9 5 13 7 ENE 1023,1 7 0 0,0
20.06.2018 02:00:00 15,3 14,3 13,1 19,7 16,3 4 2 8 4 ENE 1023,1 13 0 0,0
20.06.2018 01:00:00 15,7 14,7 12,7 19,7 16,3 4 2 8 4 ENE 1023,3 19 0 0,0
20.06.2018 00:00:00 16,6 14,8 11,6 19,7 16,3 4 2 9 5 NE 1023,3 22 0 0,0
19.06.2018 23:00:00 17,3 15,1 11,8 19,7 16,3 5 3 10 5 NE 1023,5 19 0 0,0
19.06.2018 22:00:00 19,4 16,1 14,5 19,6 16,3 8 5 11 6 NNE 1023,3 30 27 0,0
19.06.2018 21:00:00 22,0 16,7 19,6 19,6 16,3 8 4 16 9 NE 1023,3 40 60 0,0
19.06.2018 20:00:00 23,2 16,3 22,9 19,5 16,3 11 6 19 10 NNE 1023,4 26 60 0,0
19.06.2018 19:00:00 23,3 16,1 27,4 19,4 16,3 11 6 19 10 ENE 1023,8 21 60 0,0
19.06.2018 18:00:00 23,0 15,6 29,6 19,3 16,3 10 6 26 14 NE 1024,2 20 54 0,0
19.06.2018 17:00:00 21,8 15,9 27,7 19,2 16,3 9 5 18 10 N 1024,9 18 9 0,0
19.06.2018 16:00:00 21,2 15,9 26,6 19,2 16,3 8 4 19 10 N 1025,3 26 0 0,0
19.06.2018 15:00:00 20,5 15,5 24,7 19,2 16,3 8 4 15 8 ENE 1025,6 28 0 0,0
19.06.2018 14:00:00 19,8 15,0 23,2 19,2 16,3 4 2 17 9 NNE 1025,9 46 0 0,0
19.06.2018 13:00:00 19,1 15,0 22,1 19,2 16,3 5 3 11 6 N 1026,2 23 0 0,0
19.06.2018 12:00:00 18,5 15,2 20,5 19,2 16,3 6 3 12 7 E 1026,3 22 0 0,0
19.06.2018 11:00:00 17,5 14,9 18,1 19,3 16,3 7 4 12 7 NE 1026,5 14 0 0,0
19.06.2018 10:00:00 17,1 14,9 17,0 19,4 16,3 4 2 18 10 NE 1026,7 18 0 0,0
19.06.2018 09:00:00 16,8 14,8 16,4 19,4 16,3 9 5 13 7 ENE 1026,5 18 0 0,0
19.06.2018 08:00:00 16,4 14,8 15,4 19,5 16,3 5 3 7 4 NNE 1026,4 20 0 0,0
19.06.2018 07:00:00 15,6 14,3 13,6 19,6 16,3 4 2 8 4 N 1026,0 20 0 0,0
19.06.2018 06:00:00 14,6 13,6 7,9 19,7 16,3 2 1 11 6 NE 1025,9 18 0 0,0
19.06.2018 05:00:00 12,3 11,2 8,0 19,8 16,3 8 4 10 5 NNW 1025,7 17 0 0,0
19.06.2018 04:00:00 13,4 12,0 8,8 19,9 16,3 8 4 12 6 NW 1025,5 20 0 0,2
19.06.2018 03:00:00 13,6 11,8 9,5 20,0 16,3 10 5 13 7 NW 1025,1 23 0 0,0
19.06.2018 02:00:00 14,9 12,8 11,7 20,0 16,3 9 5 20 11 WNW 1024,9 21 0 0,0
19.06.2018 01:00:00 15,5 13,0 12,2 20,0 16,3 12 6 21 12 WNW 1024,7 22 0 0,0
19.06.2018 00:00:00 16,2 13,5 12,3 20,1 16,3 10 5 19 11 WNW 1024,8 23 0 0,0
18.06.2018 23:00:00 17,6 13,9 14,1 20,0 16,2 9 5 21 11 WNW 1024,5 20 0 0,0
18.06.2018 22:00:00 18,9 14,6 15,4 20,0 16,3 8 4 14 8 WNW 1023,8 26 27 0,0
18.06.2018 21:00:00 21,8 14,7 19,8 19,9 16,2 11 6 21 11 WNW 1023,4 34 60 0,0
18.06.2018 20:00:00 23,3 14,0 22,6 19,8 16,3 17 9 28 15 WNW 1022,9 24 58 0,0
18.06.2018 19:00:00 23,5 13,4 23,4 19,7 16,2 14 8 28 15 NW 1022,6 23 45 0,0
18.06.2018 18:00:00 23,5 13,7 24,8 19,6 16,2 16 8 30 16 WNW 1022,7 30 40 0,0
18.06.2018 17:00:00 23,9 14,3 25,0 19,5 16,2 14 8 30 16 WNW 1023,0 20 35 0,0
18.06.2018 16:00:00 23,7 15,2 25,0 19,4 16,2 18 10 29 16 WNW 1023,1 48 23 0,0
18.06.2018 15:00:00 23,6 15,4 22,7 19,3 16,2 18 10 33 18 W 1023,1 33 24 0,0
18.06.2018 14:00:00 21,7 15,5 23,1 19,3 16,2 19 10 30 16 W 1023,4 24 16 0,0
18.06.2018 13:00:00 20,8 15,6 19,1 19,3 16,2 17 9 29 16 WSW 1023,4 21 17 0,0
18.06.2018 12:00:00 19,5 16,5 17,3 19,3 16,3 14 7 23 12 WSW 1023,3 17 16 0,4
18.06.2018 11:00:00 18,1 15,7 17,7 19,3 16,2 13 7 22 12 W 1023,3 5 0 0,0
18.06.2018 10:00:00 17,1 15,1 15,7 19,4 16,3 14 8 23 12 SW 1023,1 19 0 0,0
18.06.2018 09:00:00 16,0 14,9 14,8 19,5 16,3 16 9 21 12 SW 1023,0 8 0 0,2
18.06.2018 08:00:00 15,6 14,0 14,8 19,5 16,2 15 8 23 12 SW 1022,9 6 5 0,0
18.06.2018 07:00:00 15,3 13,3 13,8 19,6 16,2 11 6 15 8 SW 1022,5 13 8 0,0
18.06.2018 06:00:00 15,1 13,3 13,3 19,7 16,2 10 5 13 7 SW 1022,4 14 0 0,0
18.06.2018 05:00:00 15,0 13,5 13,7 19,7 16,2 9 5 19 11 WSW 1022,2 9 0 0,0
18.06.2018 04:00:00 15,9 12,8 14,7 19,8 16,2 10 6 21 11 WSW 1021,9 18 0 0,0
18.06.2018 03:00:00 16,1 12,6 15,0 19,8 16,2 13 7 20 11 WSW 1022,0 17 0 0,0
18.06.2018 02:00:00 16,4 12,6 15,1 19,9 16,2 10 5 17 9 WSW 1022,1 38 0 0,0
18.06.2018 01:00:00 16,7 12,6 15,3 19,9 16,2 13 7 21 11 W 1022,1 19 0 0,0
18.06.2018 00:00:00 17,2 11,9 15,4 19,9 16,2 12 7 16 9 WSW 1022,0 20 0 0,0
17.06.2018 23:00:00 17,9 11,7 15,2 19,9 16,2 8 4 10 5 SW 1021,9 22 0 0,0
17.06.2018 22:00:00 17,9 11,2 15,2 19,9 16,2 8 4 16 9 SSW 1021,5 21 5 0,0
17.06.2018 21:00:00 19,2 11,0 17,6 19,9 16,2 11 6 26 14 WSW 1021,3 29 54 0,0
17.06.2018 20:00:00 20,2 9,7 19,3 19,8 16,2 19 10 32 17 WSW 1021,0 22 48 0,0
17.06.2018 19:00:00 21,0 9,6 21,1 19,7 16,2 19 10 29 16 WSW 1020,5 20 39 0,0
17.06.2018 18:00:00 21,1 9,3 22,3 19,6 16,2 21 12 33 18 W 1020,7 21 32 0,0
17.06.2018 17:00:00 20,1 9,3 23,1 19,5 16,2 19 10 31 17 W 1020,7 19 46 0,0
17.06.2018 16:00:00 20,4 10,2 23,8 19,4 16,2 19 10 32 18 WSW 1020,5 17 45 0,0
17.06.2018 15:00:00 20,7 9,6 21,6 19,3 16,2 22 12 36 19 WSW 1020,6 17 29 0,0
17.06.2018 14:00:00 19,4 10,9 21,1 19,3 16,2 19 10 29 16 W 1020,8 17 19 0,0
17.06.2018 13:00:00 18,1 10,9 18,5 19,3 16,2 6 4 23 12 W 1021,1 17 6 0,0
17.06.2018 12:00:00 17,8 10,7 21,0 19,3 16,2 10 5 18 10 SW 1021,2 15 17 0,0
17.06.2018 11:00:00 17,0 10,1 18,0 19,4 16,2 7 4 13 7 WNW 1021,3 20 15 0,0
17.06.2018 10:00:00 15,6 10,6 15,9 19,5 16,2 7 4 21 11 W 1021,6 19 0 0,0
17.06.2018 09:00:00 14,8 10,4 14,7 19,5 16,2 8 4 12 7 W 1021,0 23 0 0,0
17.06.2018 08:00:00 14,0 11,9 13,2 19,6 16,2 7 4 11 6 W 1020,6 15 0 0,0
17.06.2018 07:00:00 13,4 12,1 12,0 19,7 16,2 8 4 15 8 W 1020,2 12 0 0,0
17.06.2018 06:00:00 12,8 11,7 10,8 19,8 16,2 9 5 16 9 WSW 1019,8 10 0 0,0
17.06.2018 05:00:00 12,5 11,2 10,7 19,9 16,2 11 6 16 8 WSW 1019,5 11 0 0,0
17.06.2018 04:00:00 13,1 11,5 11,4 20,0 16,2 13 7 19 10 WSW 1019,5 11 0 0,0
17.06.2018 03:00:00 13,6 11,5 11,8 20,1 16,2 13 7 19 10 WSW 1019,2 13 0 0,0
17.06.2018 02:00:00 13,9 11,4 12,0 20,1 16,2 13 7 19 11 WSW 1019,0 13 0 0,0
17.06.2018 01:00:00 14,6 11,9 12,6 20,2 16,2 13 7 18 10 WSW 1018,6 12 0 0,0
17.06.2018 00:00:00 15,7 12,3 13,4 20,2 16,2 10 5 15 8 WSW 1018,5 15 0 0,0
16.06.2018 23:00:00 17,4 12,5 15,5 20,2 16,2 10 5 14 8 WSW 1018,3 17 0 0,0
16.06.2018 22:00:00 17,9 12,6 16,4 20,1 16,2 10 5 21 11 W 1017,6 21 18 0,0
16.06.2018 21:00:00 20,0 12,2 19,0 20,1 16,2 11 6 24 13 WNW 1017,2 28 43 0,0
16.06.2018 20:00:00 20,9 11,5 20,2 20,0 16,2 15 8 28 15 NW 1016,9 30 13 0,0
16.06.2018 19:00:00 22,0 12,0 21,8 19,9 16,2 19 11 30 16 WNW 1016,5 28 31 0,0
16.06.2018 18:00:00 22,3 10,8 24,3 19,7 16,2 18 10 34 18 W 1016,1 16 31 0,0
16.06.2018 17:00:00 22,8 11,8 24,8 19,6 16,2 20 11 33 18 W 1016,4 18 39 0,0
16.06.2018 16:00:00 22,6 11,3 25,6 19,4 16,2 17 9 29 16 W 1016,5 23 30 0,0
16.06.2018 15:00:00 23,2 11,9 24,2 19,2 16,2 13 7 29 15 WSW 1016,4 20 47 0,0
16.06.2018 14:00:00 21,0 10,8 25,6 19,2 16,2 13 7 23 13 SW 1017,1 26 40 0,0
16.06.2018 13:00:00 20,2 11,4 26,2 19,1 16,2 10 5 19 10 WSW 1017,3 19 44 0,0
16.06.2018 12:00:00 19,7 11,2 28,1 19,1 16,2 12 6 19 11 WNW 1017,6 20 58 0,0
16.06.2018 11:00:00 18,3 10,6 22,6 19,1 16,2 5 3 15 8 NW 1017,7 23 60 0,0
16.06.2018 10:00:00 17,5 12,0 16,0 19,2 16,2 4 2 14 7 NNW 1017,7 20 53 0,0
16.06.2018 09:00:00 15,1 11,7 14,9 19,2 16,2 9 5 16 8 NE 1017,3 18 15 0,0
16.06.2018 08:00:00 14,1 12,0 12,5 19,3 16,2 12 7 17 9 N 1017,1 16 41 0,0
16.06.2018 07:00:00 12,9 11,6 11,3 19,4 16,2 8 4 13 7 N 1017,1 15 27 0,0
16.06.2018 06:00:00 13,4 11,6 12,2 19,4 16,2 8 4 16 9 N 1016,9 15 0 0,0
16.06.2018 05:00:00 14,0 12,2 13,0 19,5 16,2 9 5 14 7 NNW 1017,0 16 0 0,0
16.06.2018 04:00:00 14,4 12,4 13,2 19,5 16,2 8 5 16 9 NNW 1017,0 15 0 0,2
16.06.2018 03:00:00 14,7 12,2 13,6 19,5 16,2 10 5 20 11 N 1017,0 4,1 0 0,2
16.06.2018 02:00:00 16,0 12,7 15,2 19,6 16,2 10 6 19 10 N 1016,6 26 0 0,0
16.06.2018 01:00:00 17,5 14,8 15,8 19,6 16,2 11 6 17 9 NNW 1016,6 25 0 0,0
16.06.2018 00:00:00 18,3 15,2 16,3 19,5 16,2 5 3 13 7 SW 1016,5 24 0 0,0
15.06.2018 23:00:00 18,7 15,8 17,3 19,5 16,2 5 3 10 5 WSW 1016,7 26 0 0,0
15.06.2018 22:00:00 19,5 16,2 17,9 19,5 16,2 3 2 10 5 SW 1016,4 16 0 0,0
15.06.2018 21:00:00 20,0 15,8 18,8 19,4 16,2 10 5 16 9 WSW 1016,5 27 0 0,0
15.06.2018 20:00:00 21,4 14,3 20,7 19,3 16,2 4 2 11 6 SW 1016,2 32 1 0,0
15.06.2018 19:00:00 21,8 13,9 22,7 19,2 16,2 4 2 9 5 SSW 1016,2 14 27 0,0
15.06.2018 18:00:00 23,5 13,9 22,7 19,1 16,2 5 3 15 8 WNW 1016,3 28 26 0,0

tt = Température de l'air
td = dewpoint
tt 5cm = Température de l'air 5cm
tt -20cm = Température de l'air -20cm
tt -100cm = Température de l'air -100cm
ff = Vitesse du vent
fx = gusts
dd = Direction du vent
ppp = reduced air pressure
vv = visibility
sd = Ensoleillement
rr = Quantités de précipitations

stations d'obs. à proximité